Home > Weather > U.S.A. > Myrtle Beach > Past weeks

Flag for U.S.A. Weather past 2 weeks in Myrtle Beach, South Carolina, U.S.A.

61 °F


Feels Like: 61 °F
Forecast: 62 / 73 °F
Wind: 5 mph from Southeast

Location: Myrtle Beach Air Force Base

Current Time: Dec 2, 2015 at 1:14:05 AM

Latest Report: Dec 2, 2015 at 12:35 AM

Visibility: 1 mi

Pressure: 30.02 "Hg

Humidity: 77%

Dew point: 54 °F

Location of Myrtle BeachLocation

Historic Weather in Myrtle Beach — Graph


Myrtle Beach temperature yesterday

Maximum temperature yesterday: 70 °F (at 1:50 PM)
Minimum temperature yesterday: 55 °F (at 6:45 AM)
Average temperature yesterday: 60 °F

Past Weeks' High & Low Weather Summary

High77 °F (Nov 18, 11:48 AM)88% (Nov 20, 12:35 AM)30.66 "Hg (Nov 20, 12:35 AM)
Low34 °F (Nov 24, 3:35 AM)31% (Nov 24, 1:50 PM)29.89 "Hg (Nov 22, 3:55 AM)
Average57 °F69%30.25 "Hg
* Reported Nov 16 9:47 PM — Dec 1 9:45 PM, Myrtle Beach, Weather by CustomWeather, © 2015

Note: Actual official high and low records may vary slightly from our data, if they occured in-between our weather recording intervals... More about our weather records


Myrtle Beach weather history for previous 24 hours

Time TempWeatherWind HumidityBarometerVisibility
9:45 PM
Tue, Dec 1
63 °FClear.No wind77%30.07 "Hg10 mi
8:45 PM63 °FPassing clouds.6 mph83%30.07 "Hg7 mi
7:49 PM61 °FClear.6 mph83%30.07 "Hg7 mi
6:45 PM63 °FClear.No wind77%30.08 "Hg10 mi
5:45 PM63 °FClear.No wind83%30.06 "Hg10 mi
4:45 PM66 °FScattered clouds.5 mph64%30.07 "Hg10 mi
3:45 PM68 °FScattered clouds.6 mph69%30.07 "Hg10 mi
2:52 PM70 °FScattered clouds.7 mph64%30.07 "Hg10 mi
1:50 PM70 °FScattered clouds.No wind64%30.08 "Hg10 mi
12:45 PM66 °FScattered clouds.7 mph68%30.12 "Hg10 mi
11:45 AM64 °FBroken clouds.5 mph68%30.15 "Hg10 mi
10:50 AM61 °FFog.5 mph77%30.16 "Hg6 mi
9:50 AM57 °FFog.N/A82%30.16 "Hg4 mi
8:45 AM57 °FFog.6 mph82%30.16 "Hg2 mi
7:45 AM55 °FFog.7 mph82%30.15 "Hg3 mi
6:45 AM55 °FLow clouds.6 mph82%30.15 "Hg3 mi
5:35 AM57 °FLow clouds.9 mph77%30.13 "Hg10 mi
5:15 AM57 °FMostly cloudy.9 mph77%30.12 "Hg10 mi
4:55 AM57 °FMostly cloudy.7 mph77%30.13 "Hg10 mi
4:35 AM57 °FLow clouds.8 mph77%30.13 "Hg10 mi
4:15 AM57 °FLow clouds.3 mph77%30.13 "Hg9 mi
3:55 AM57 °FLow clouds.6 mph77%30.13 "Hg10 mi
2:55 AM57 °FOvercast.6 mph82%30.14 "Hg10 mi
2:35 AM57 °FOvercast.8 mph82%30.14 "Hg10 mi
1:55 AM57 °FOvercast.5 mph82%30.13 "Hg10 mi
1:15 AM57 °FOvercast.6 mph82%30.13 "Hg10 mi
Weather by CustomWeather, © 2015

See weather overviewHow to use our weather pages